Regional Weather Roundup
Issued by NWS

Home | Current Version | Previous Version | Graphics & Text | Print | Product List | Glossary On
Versions: 1 2 3 4 5 6 7 8 9 10 11 12 13 14 15 16 17 18 19 20 21 22 23 24 25 26 27 28 29 30 31 32 33 34 35 36 37 38 39 40 41 42 43 44 45 46 47 48 49 50
000
ASUS45 KSLC 270010
RWRUT

UTAH REGIONAL WEATHER ROUNDUP
NATIONAL WEATHER SERVICE SALT LAKE CITY UT
600 PM MDT TUE MAY 26 2015

UTZ001>011-023>025-270100-

NORTHERN UTAH

CITY           SKY/WX    TMP DP  RH WIND       PRES   REMARKS
BRIGHAM CITY   CLOUDY    55  49  80 CALM      30.04S
HILL AFB       PTSUNNY   61  46  59 N14       30.04S
LOGAN          NOT AVBL
OGDEN          PTSUNNY   57  49  74 N14G21    30.02S
PROVO AIRPORT  PTSUNNY   61  52  72 CALM      30.03R
SALT LAKE CITY CLOUDY    61  49  64 CALM      30.01F
VERNAL         CLOUDY    65  40  39 VRB5      30.00S
WENDOVER       PTSUNNY   64  45  48 SW5       29.99R
HEBER CITY     LGT RAIN  55  46  71 SW3       30.05R
WEST JORDAN    SUNNY     59  48  67 CALM      30.04S

$$

UTZ012>022-026-027-270100-

SOUTHERN/CENTRAL UTAH

CITY           SKY/WX    TMP DP  RH WIND       PRES   REMARKS
BLANDING       CLOUDY    64  47  53 E5        30.14F
BRYCE CANYON   CLOUDY    55  39  54 NE5       30.17F
CEDAR CITY     CLOUDY    60  51  72 NE5       30.03S
DELTA          CLOUDY    58  47  67 N17       30.08R
HANKSVILLE     CLOUDY    72  36  26 SW14G20   29.99S
MILFORD        LGT RAIN  54  48  80 NE8       30.06R
MOAB/CYNLANDS  PTSUNNY   71  40  32 SW22G30   29.94F
PRICE          PTSUNNY   66  40  38 MISG      30.00F
ST GEORGE      CLOUDY    86  36  16 W9G21     29.89S

$$

REGIONAL REPORTS     COLORADO/ARIZONA

CITY           SKY/WX    TMP DP  RH WIND       PRES   REMARKS
CRAIG, CO      PTSUNNY   61  43  51 S9        30.07S
GRAND JUNCTION CLOUDY    59  49  69 SE16      30.03F
RIFLE          LGT RAIN  52  47  83 W6        30.12R
MONTROSE       CLOUDY    58  47  66 SE6       30.14S
CORTEZ         MOSUNNY   69  42  37 N10       30.08F
PAGE, AZ       MOSUNNY   78  40  25 N13G24    29.96S
GRAND CANYON   MOSUNNY   70  30  22 SW13G22   30.11F
KINGMAN        SUNNY     82  21  10 SW22G32   29.94F
FLAGSTAFF      MOSUNNY   66  30  26 SW15G25   30.15F

$$

REGIONAL REPORTS    NEVADA/IDAHO/WYOMING

CITY           SKY/WX    TMP DP  RH WIND       PRES   REMARKS
LAS VEGAS, NV  MOSUNNY   90  30  11 S13G23    29.77F
ELY            MOSUNNY   64  34  32 SW8       30.06F
ELKO           MOSUNNY   70  39  32 W14G21    29.97F
POCATELLO, ID  MOSUNNY   66  45  46 S16       29.96F
BURLEY         MOSUNNY   69  43  38 S7        29.94R
EVANSTON, WY   CLOUDY    51  46  83 W16       30.09S
ROCK SPRINGS   LGT RAIN  49  44  83 SW9       30.07S
KEMMERER       CLOUDY    57  39  51 W15G22    30.08S

$$


USA.gov is the U.S. government's official web portal to all federal, state and local government web resources and services.